Location: Hanover
(52.3667°N, 9.7167°E)
Time: 05:00:03
(UTC+02:00)

Envisat - Pass Details

Date: 23 September 2024
Orbit: 762 x 764 km, 98.3° (Epoch: 04 October)

Event Time Altitude Azimuth Distance (km) Brightness Sun altitude
Rises 06:01:37 0° 8° (N) 3,240 6.6 -11.1°
Reaches altitude 10° 06:04:14 10° 356° (N) 2,310 5.6 -10.7°
Maximum altitude 06:08:24 26° 301° (WNW) 1,464 4.1 -10.1°
Enters shadow 06:12:11 12° 248° (WSW) 2,179 4.7 -9.5°
